KF6ILA Weather Reports


time (UTC)temp
C
wind
direction
speed
KPH
gust
KPH
rain 1hr
cm
rain 24hr
cm
rain mn
cm
humidity
%
barometer
mb
20240420235936 22 288 8.0 17.7 0.00 0.00 0.00 57 1014.6
20240420235439 22 279 11.3 16.1 0.00 0.00 0.00 56 1014.7
20240420234942 22 277 8.0 16.1 0.00 0.00 0.00 56 1014.8
20240420234444 22 282 9.7 16.1 0.00 0.00 0.00 57 1014.8
20240420233947 21 287 9.7 17.7 0.00 0.00 0.00 57 1014.7
20240420233451 21 278 9.7 19.3 0.00 0.00 0.00 58 1014.7
20240420232953 21 279 9.7 19.3 0.00 0.00 0.00 57 1014.7
20240420231959 21 289 11.3 20.9 0.00 0.00 0.00 59 1014.9
20240420231038 21 271 11.3 20.9 0.00 0.00 0.00 58 1014.9
20240420231006 21 271 11.3 20.9 0.00 0.00 0.00 58 1014.9
20240420230508 21 270 12.9 20.9 0.00 0.00 0.00 57 1015.0
20240420225515 21 272 11.3 20.9 0.00 0.00 0.00 58 1014.9
20240420225018 21 271 14.5 19.3 0.00 0.00 0.00 56 1014.9
20240420224521 21 272 11.3 22.5 0.00 0.00 0.00 58 1015.0
20240420224023 21 289 14.5 22.5 0.00 0.00 0.00 57 1015.0
20240420223527 21 270 12.9 24.1 0.00 0.00 0.00 57 1014.9
20240420223029 21 283 14.5 24.1 0.00 0.00 0.00 58 1014.9
20240420222533 22 281 14.5 24.1 0.00 0.00 0.00 57 1015.0
20240420222036 22 281 14.5 20.9 0.00 0.00 0.00 57 1015.2
20240420221539 22 279 12.9 20.9 0.00 0.00 0.00 57 1015.1
20240420221042 22 265 11.3 24.1 0.00 0.00 0.00 57 1015.1
20240420220545 21 280 16.1 27.4 0.00 0.00 0.00 57 1015.3
20240420220048 22 283 17.7 27.4 0.00 0.00 0.00 57 1015.4
20240420215551 22 285 16.1 24.1 0.00 0.00 0.00 58 1015.3
20240420215054 22 279 17.7 24.1 0.00 0.00 0.00 54 1015.3
20240420214557 22 276 14.5 19.3 0.00 0.00 0.00 54 1015.2
20240420214101 23 287 11.3 19.3 0.00 0.00 0.00 53 1015.3
20240420213603 23 266 9.7 16.1 0.00 0.00 0.00 55 1015.5
20240420213107 22 0 0.0 12.9 0.00 0.00 0.00 53 1015.6
20240420212705 22 273 6.4 16.1 0.00 0.00 0.00 55 1015.6
20240420212610 22 273 6.4 16.1 0.00 0.00 0.00 55 1015.6
20240420212113 23 284 8.0 16.1 0.00 0.00 0.00 54 1015.5
20240420211616 23 264 4.8 14.5 0.00 0.00 0.00 53 1015.5
20240420211119 23 251 6.4 14.5 0.00 0.00 0.00 53 1015.6
20240420210622 23 286 4.8 11.3 0.00 0.00 0.00 53 1015.6
20240420210125 23 360 3.2 11.3 0.00 0.00 0.00 50 1015.5
20240420205628 23 307 6.4 11.3 0.00 0.00 0.00 50 1015.7
20240420205131 23 196 4.8 9.7 0.00 0.00 0.00 48 1015.8
20240420204634 23 294 4.8 14.5 0.00 0.00 0.00 52 1015.9
20240420204137 23 245 6.4 14.5 0.00 0.00 0.00 50 1016.0
20240420203640 22 331 3.2 17.7 0.00 0.00 0.00 51 1015.9
20240420203143 22 277 6.4 17.7 0.00 0.00 0.00 55 1015.9
20240420202646 22 271 3.2 16.1 0.00 0.00 0.00 53 1016.0
20240420202149 22 292 8.0 16.1 0.00 0.00 0.00 53 1016.0
20240420201652 22 279 8.0 17.7 0.00 0.00 0.00 57 1016.0
20240420201156 22 292 12.9 19.3 0.00 0.00 0.00 56 1016.1
20240420200658 22 284 11.3 19.3 0.00 0.00 0.00 54 1016.1
20240420200201 22 275 11.3 20.9 0.00 0.00 0.00 55 1016.1
20240420195704 22 266 11.3 20.9 0.00 0.00 0.00 56 1016.2
20240420194321 22 320 6.4 19.3 0.00 0.00 0.00 53 1016.2
20240420194213 22 320 6.4 19.3 0.00 0.00 0.00 53 1016.2
20240420193716 22 274 9.7 14.5 0.00 0.00 0.00 52 1016.3
20240420193219 22 280 8.0 17.7 0.00 0.00 0.00 53 1016.3
20240420192722 23 292 6.4 17.7 0.00 0.00 0.00 49 1015.6
20240420192225 24 281 12.9 17.7 0.00 0.00 0.00 45 1015.6
20240420191728 25 113 6.4 17.7 0.00 0.00 0.00 35 1015.7
20240420191231 25 37 3.2 22.5 0.00 0.00 0.00 32 1015.6
20240420190734 25 101 9.7 22.5 0.00 0.00 0.00 36 1015.6
20240420190236 25 104 6.4 22.5 0.00 0.00 0.00 34 1015.6
20240420185740 25 129 9.7 24.1 0.00 0.00 0.00 38 1015.6
20240420185243 25 116 9.7 24.1 0.00 0.00 0.00 37 1015.6
20240420184746 25 160 9.7 25.7 0.00 0.00 0.00 36 1015.5
20240420184249 24 115 11.3 25.7 0.00 0.00 0.00 37 1015.5
20240420183255 23 97 8.0 17.7 0.00 0.00 0.00 38 1015.6
20240420182758 22 89 9.7 17.7 0.00 0.00 0.00 43 1015.8
20240420182300 22 0 0.0 9.7 0.00 0.00 0.00 42 1015.7
20240420181804 22 342 3.2 9.7 0.00 0.00 0.00 44 1015.7
20240420181307 21 357 6.4 11.3 0.00 0.00 0.00 41 1015.7
20240420180809 21 256 6.4 12.9 0.00 0.00 0.00 43 1015.7
20240420180313 21 281 4.8 12.9 0.00 0.00 0.00 43 1015.6
20240420175816 21 300 6.4 9.7 0.00 0.00 0.00 44 1015.7
20240420174822 21 351 3.2 12.9 0.00 0.00 0.00 42 1015.7
20240420174324 21 339 8.0 12.9 0.00 0.00 0.00 39 1015.6
20240420173927 21 10 1.6 9.7 0.00 0.00 0.00 40 1015.5
20240420173828 21 10 1.6 9.7 0.00 0.00 0.00 40 1015.5
20240420173330 21 331 4.8 9.7 0.00 0.00 0.00 41 1015.5
20240420172834 21 341 3.2 9.7 0.00 0.00 0.00 43 1015.4
20240420172336 21 343 4.8 9.7 0.00 0.00 0.00 40 1015.4
20240420171839 21 296 4.8 8.0 0.00 0.00 0.00 40 1015.3
20240420171342 21 9 3.2 6.4 0.00 0.00 0.00 40 1015.4
20240420170845 21 349 3.2 9.7 0.00 0.00 0.00 40 1015.3
20240420170349 20 18 4.8 11.3 0.00 0.00 0.00 38 1015.3
20240420165851 20 334 6.4 12.9 0.00 0.00 0.00 40 1015.3
20240420165354 20 298 6.4 12.9 0.00 0.00 0.00 39 1015.3
20240420164857 20 318 3.2 11.3 0.00 0.00 0.00 39 1015.3
20240420163903 20 277 6.4 12.9 0.00 0.00 0.00 38 1015.2
20240420162909 20 296 8.0 12.9 0.00 0.00 0.00 38 1015.1
20240420162412 20 300 6.4 12.9 0.00 0.00 0.00 38 1015.2
20240420161915 20 264 6.4 11.3 0.00 0.00 0.00 40 1015.1
20240420161418 20 288 4.8 9.7 0.00 0.00 0.00 37 1015.1
20240420160922 19 312 4.8 9.7 0.00 0.00 0.00 38 1015.1
20240420160424 19 322 4.8 9.7 0.00 0.00 0.00 35 1015.2
20240420155927 19 313 3.2 9.7 0.00 0.00 0.00 35 1015.1
20240420155519 18 291 4.8 9.7 0.00 0.00 0.00 38 1015.2
20240420155430 18 291 4.8 9.7 0.00 0.00 0.00 38 1015.2
20240420154934 18 280 3.2 12.9 0.00 0.00 0.00 41 1015.2
20240420154436 18 299 8.0 14.5 0.00 0.00 0.00 37 1015.2
20240420153940 18 303 9.7 14.5 0.00 0.00 0.00 35 1015.2
20240420153442 18 259 8.0 19.3 0.00 0.00 0.00 37 1015.2
20240420152945 18 273 9.7 19.3 0.00 0.00 0.00 36 1015.2
20240420152448 18 289 9.7 16.1 0.00 0.00 0.00 40 1015.1
20240420151951 17 272 11.3 17.7 0.00 0.00 0.00 40 1015.1
20240420151455 17 274 11.3 17.7 0.00 0.00 0.00 39 1015.0
20240420150958 17 285 8.0 16.1 0.00 0.00 0.00 43 1014.9
20240420150500 17 263 8.0 14.5 0.00 0.00 0.00 45 1014.8
20240420150003 17 289 9.7 17.7 0.00 0.00 0.00 45 1014.8
20240420145506 16 261 9.7 19.3 0.00 0.00 0.00 46 1014.8
20240420145009 16 288 8.0 19.3 0.00 0.00 0.00 48 1014.7
20240420144512 16 275 9.7 16.1 0.00 0.00 0.00 46 1014.7
20240420144015 16 264 6.4 12.9 0.00 0.00 0.00 50 1014.7
20240420143518 16 301 6.4 14.5 0.00 0.00 0.00 51 1014.6
20240420143021 15 290 6.4 16.1 0.00 0.00 0.00 52 1014.6
20240420142524 15 282 11.3 16.1 0.00 0.00 0.00 51 1014.4
20240420142027 15 284 6.4 17.7 0.00 0.00 0.00 52 1014.4
20240420141530 15 287 9.7 17.7 0.00 0.00 0.00 52 1014.4
20240420141034 15 281 11.3 16.1 0.00 0.00 0.00 53 1014.3
20240420140536 15 284 8.0 16.1 0.00 0.00 0.00 54 1013.4
20240420140039 14 270 8.0 16.1 0.00 0.00 0.00 55 1013.3
20240420135542 14 283 9.7 17.7 0.00 0.00 0.00 56 1013.3
20240420135045 14 281 9.7 17.7 0.00 0.00 0.00 56 1013.2
20240420134549 13 288 11.3 16.1 0.00 0.00 0.00 57 1013.1
20240420134051 13 292 11.3 19.3 0.00 0.00 0.00 58 1013.0
20240420133554 13 288 9.7 19.3 0.00 0.00 0.00 59 1013.1
20240420133057 13 291 8.0 12.9 0.00 0.00 0.00 59 1013.1
20240420132600 13 289 8.0 14.5 0.00 0.00 0.00 59 1013.0
20240420132103 13 278 9.7 17.7 0.00 0.00 0.00 59 1013.0
20240420131606 13 281 9.7 17.7 0.00 0.00 0.00 59 1013.1
20240420131109 13 291 11.3 16.1 0.00 0.00 0.00 59 1013.0
20240420130612 13 281 9.7 17.7 0.00 0.00 0.00 60 1012.9
20240420130116 12 286 11.3 17.7 0.00 0.00 0.00 61 1013.0
20240420125618 12 290 11.3 19.3 0.00 0.00 0.00 61 1013.0
20240420125122 12 273 9.7 19.3 0.00 0.00 0.00 61 1013.0
20240420124624 12 271 11.3 19.3 0.00 0.00 0.00 61 1012.9
20240420124127 12 283 8.0 17.7 0.00 0.00 0.00 61 1012.8
20240420123630 12 283 11.3 17.7 0.00 0.00 0.00 60 1012.6
20240420123133 12 279 9.7 16.1 0.00 0.00 0.00 60 1012.7
20240420122636 12 277 9.7 16.1 0.00 0.00 0.00 61 1012.7
20240420122139 12 279 11.3 20.9 0.00 0.00 0.00 61 1012.6
20240420121642 12 293 9.7 20.9 0.00 0.00 0.00 61 1012.5
20240420121145 12 282 11.3 22.5 0.00 0.00 0.00 61 1012.5
20240420120648 12 285 11.3 22.5 0.00 0.00 0.00 61 1012.6
20240420120151 12 257 12.9 22.5 0.00 0.00 0.00 61 1012.4
20240420115654 12 278 11.3 19.3 0.00 0.00 0.00 61 1012.4
20240420115157 12 265 11.3 19.3 0.00 0.00 0.00 60 1012.4
20240420114203 12 287 9.7 22.5 0.00 0.00 0.00 60 1012.4
20240420113706 12 269 11.3 22.5 0.00 0.00 0.00 60 1012.4
20240420113209 12 275 9.7 20.9 0.00 0.00 0.00 59 1012.4
20240420112712 12 268 11.3 20.9 0.00 0.00 0.00 59 1012.3
20240420112215 12 273 11.3 19.3 0.00 0.00 0.00 59 1012.4
20240420111719 12 275 9.7 19.3 0.00 0.00 0.00 59 1012.4
20240420111221 12 284 11.3 20.9 0.00 0.00 0.00 59 1012.4
20240420110724 12 295 11.3 27.4 0.00 0.00 0.00 59 1012.4
20240420110227 12 277 11.3 27.4 0.00 0.00 0.00 60 1012.4
20240420105730 12 291 11.3 29.0 0.00 0.00 0.00 61 1012.5
20240420105233 12 279 11.3 29.0 0.00 0.00 0.00 62 1012.5
20240420104736 12 281 12.9 20.9 0.00 0.00 0.00 63 1012.5
20240420104239 12 273 12.9 20.9 0.00 0.00 0.00 63 1012.5
20240420103742 11 264 14.5 25.7 0.00 0.00 0.00 64 1012.6
20240420103245 11 263 16.1 25.7 0.00 0.00 0.00 65 1012.6
20240420102748 12 262 16.1 24.1 0.00 0.00 0.00 64 1012.5
20240420102251 12 253 17.7 24.1 0.00 0.00 0.00 64 1012.5
20240420101257 12 276 14.5 25.7 0.00 0.00 0.00 64 1012.5
20240420100800 12 285 14.5 29.0 0.00 0.00 0.00 63 1012.5
20240420100303 12 273 16.1 29.0 0.00 0.00 0.00 62 1012.4
20240420095806 12 276 17.7 27.4 0.00 0.00 0.00 62 1012.4
20240420095309 12 272 16.1 24.1 0.00 0.00 0.00 62 1012.4
20240420094813 12 277 14.5 25.7 0.00 0.00 0.00 62 1012.4
20240420094316 12 281 16.1 25.7 0.00 0.00 0.00 61 1012.4
20240420093818 12 276 12.9 27.4 0.00 0.00 0.00 61 1012.4
20240420093321 12 276 12.9 27.4 0.00 0.00 0.00 61 1012.5
20240420092824 12 270 14.5 25.7 0.00 0.00 0.00 62 1012.4
20240420092327 12 265 16.1 25.7 0.00 0.00 0.00 63 1012.5
20240420091830 12 279 12.9 25.7 0.00 0.00 0.00 62 1012.5
20240420091333 12 273 12.9 19.3 0.00 0.00 0.00 62 1012.5
20240420090836 12 286 12.9 22.5 0.00 0.00 0.00 64 1012.5
20240420090340 11 283 14.5 22.5 0.00 0.00 0.00 67 1012.7
20240420085842 11 285 12.9 20.9 0.00 0.00 0.00 69 1012.6
20240420085345 11 275 12.9 20.9 0.00 0.00 0.00 70 1012.6
20240420084848 11 280 11.3 22.5 0.00 0.00 0.00 71 1012.7
20240420084351 11 286 16.1 22.5 0.00 0.00 0.00 72 1012.6
20240420083854 11 285 11.3 20.9 0.00 0.00 0.00 72 1012.7
20240420083357 11 286 11.3 19.3 0.00 0.00 0.00 72 1012.6
20240420082900 11 269 12.9 25.7 0.00 0.00 0.00 71 1012.6
20240420082403 11 274 14.5 25.7 0.00 0.00 0.00 71 1012.7
20240420081906 11 278 16.1 27.4 0.00 0.00 0.00 70 1012.6
20240420081409 11 268 20.9 27.4 0.00 0.00 0.00 69 1012.7
20240420080912 11 268 17.7 27.4 0.00 0.00 0.00 68 1012.7
20240420080415 11 266 20.9 29.0 0.00 0.00 0.00 66 1012.8
20240420075919 12 268 19.3 30.6 0.00 0.00 0.00 66 1012.8
20240420075422 12 265 20.9 30.6 0.00 0.00 0.00 65 1012.6
20240420074924 12 262 19.3 29.0 0.00 0.00 0.00 64 1012.6
20240420073930 11 262 19.3 27.4 0.00 0.00 0.00 62 1012.7
20240420073434 11 265 19.3 25.7 0.00 0.00 0.00 63 1012.7
20240420072937 11 271 16.1 24.1 0.00 0.00 0.00 62 1012.7
20240420072439 11 260 14.5 27.4 0.00 0.00 0.00 59 1012.8
20240420071943 12 263 17.7 27.4 0.00 0.00 0.00 60 1012.7
20240420071446 11 261 20.9 32.2 0.00 0.00 0.00 60 1012.8
20240420070948 11 255 22.5 32.2 0.00 0.00 0.00 57 1012.8
20240420070451 11 254 24.1 35.4 0.00 0.00 0.00 57 1012.8
20240420065955 11 256 20.9 35.4 0.00 0.00 0.00 54 1012.7
20240420065457 11 262 24.1 32.2 0.00 0.00 0.00 53 1012.9
20240420065000 11 260 20.9 32.2 0.00 0.00 0.00 53 1012.8
20240420064504 11 258 20.9 32.2 0.00 0.00 0.00 52 1012.9
20240420064006 11 257 20.9 32.2 0.00 0.00 0.00 48 1012.6
20240420063509 11 253 22.5 33.8 0.00 0.00 0.00 50 1012.4
20240420063012 10 251 22.5 37.0 0.00 0.00 0.00 48 1012.3
20240420062515 10 253 27.4 37.0 0.00 0.00 0.00 49 1012.4
20240420062018 10 252 27.4 33.8 0.00 0.00 0.00 50 1012.4
20240420061522 11 253 25.7 35.4 0.00 0.00 0.00 49 1012.5
20240420061024 11 259 25.7 35.4 0.00 0.00 0.00 48 1012.4
20240420060527 11 262 22.5 33.8 0.00 0.00 0.00 47 1012.5
20240420060030 11 260 20.9 33.8 0.00 0.00 0.00 46 1012.5
20240420055533 11 265 25.7 33.8 0.00 0.00 0.00 46 1012.6
20240420055037 11 271 25.7 35.4 0.00 0.00 0.00 44 1012.5
20240420054539 11 269 24.1 37.0 0.00 0.00 0.00 44 1012.6
20240420054042 11 266 27.4 37.0 0.00 0.00 0.00 44 1012.6
20240420053545 11 260 27.4 37.0 0.00 0.00 0.00 47 1012.4
20240420053049 11 261 27.4 37.0 0.00 0.00 0.00 49 1012.4
20240420052551 11 265 25.7 35.4 0.00 0.00 0.00 49 1013.2
20240420052054 11 259 25.7 38.6 0.00 0.00 0.00 48 1013.2
20240420051557 11 258 30.6 40.2 0.00 0.00 0.00 49 1013.1
20240420051100 11 262 27.4 40.2 0.00 0.00 0.00 50 1013.3
20240420050604 10 268 22.5 35.4 0.00 0.00 0.00 52 1013.2
20240420050106 10 253 27.4 35.4 0.00 0.00 0.00 54 1013.2
20240420045609 11 253 25.7 32.2 0.00 0.00 0.00 53 1013.1
20240420045112 11 258 20.9 30.6 0.00 0.00 0.00 54 1013.2
20240420044615 11 258 22.5 30.6 0.00 0.00 0.00 53 1013.1
20240420044118 11 260 22.5 33.8 0.00 0.00 0.00 53 1013.1
20240420043621 11 257 25.7 35.4 0.00 0.00 0.00 54 1013.1
20240420043202 10 254 27.4 38.6 0.00 0.00 0.00 59 1013.0
20240420043124 10 254 27.4 38.6 0.00 0.00 0.00 59 1013.0
20240420042627 10 252 30.6 38.6 0.00 0.00 0.00 61 1013.0
20240420042130 10 255 25.7 40.2 0.00 0.00 0.00 60 1012.9
20240420041633 10 260 33.8 40.2 0.00 0.00 0.00 61 1012.8
20240420041136 10 255 29.0 38.6 0.00 0.00 0.00 62 1012.7
20240420040639 10 253 30.6 38.6 0.00 0.00 0.00 63 1012.6
20240420040142 10 250 30.6 40.2 0.00 0.00 0.00 69 1012.6
20240420035645 10 251 30.6 41.8 0.00 0.00 0.00 69 1012.4
20240420035148 10 252 32.2 41.8 0.00 0.00 0.00 69 1012.4
20240420034651 10 255 30.6 43.5 0.00 0.00 0.00 72 1012.2
20240420034154 10 257 32.2 43.5 0.00 0.00 0.00 70 1012.1
20240420033658 10 256 32.2 45.1 0.00 0.00 0.00 67 1012.0
20240420032703 10 258 33.8 43.5 0.00 0.00 0.00 70 1011.9
20240420032207 10 258 32.2 45.1 0.00 0.00 0.00 74 1011.8
20240420031710 10 261 32.2 45.1 0.00 0.00 0.00 79 1011.7
20240420031212 10 258 33.8 41.8 0.00 0.00 0.00 84 1011.6
20240420030716 9 259 29.0 41.8 0.00 0.00 0.00 90 1011.6
20240420030218 10 267 29.0 41.8 0.00 0.00 0.00 91 1011.7
20240420025721 10 270 29.0 41.8 0.00 0.00 0.00 91 1011.4
20240420025224 10 262 29.0 38.6 0.00 0.00 0.00 90 1011.3
20240420024727 10 262 29.0 38.6 0.00 0.00 0.00 91 1011.3
20240420024230 10 263 29.0 38.6 0.00 0.00 0.00 90 1011.3
20240420023734 10 266 27.4 38.6 0.00 0.00 0.00 92 1011.3
20240420023237 10 265 29.0 38.6 0.00 0.00 0.00 92 1011.3
20240420022739 10 269 24.1 38.6 0.00 0.00 0.00 92 1011.4
20240420022242 10 273 25.7 41.8 0.00 0.00 0.00 92 1011.4
20240420021745 10 262 32.2 41.8 0.00 0.00 0.00 91 1011.4
20240420021248 10 268 29.0 41.8 0.00 0.00 0.00 90 1011.3
20240420020752 11 268 25.7 43.5 0.00 0.00 0.00 88 1011.2
20240420020254 11 262 30.6 45.1 0.00 0.00 0.00 88 1011.1
20240420015758 11 257 32.2 45.1 0.00 0.00 0.00 88 1011.1
20240420015300 11 253 30.6 45.1 0.00 0.00 0.00 87 1011.0
20240420014803 11 259 35.4 46.7 0.00 0.00 0.00 86 1011.0
20240420014307 11 256 33.8 46.7 0.00 0.00 0.00 85 1011.0
20240420013810 12 254 33.8 45.1 0.00 0.00 0.00 84 1011.2
20240420013312 12 254 35.4 46.7 0.00 0.00 0.00 84 1011.1
20240420012815 12 258 38.6 46.7 0.00 0.00 0.00 82 1011.1
20240420012318 12 260 33.8 45.1 0.00 0.00 0.00 82 1011.3
20240420011821 12 258 35.4 45.1 0.00 0.00 0.00 81 1011.2
20240420011324 13 260 33.8 46.7 0.00 0.00 0.00 80 1011.2
20240420010827 13 269 33.8 46.7 0.00 0.00 0.00 80 1011.3
20240420010330 13 266 33.8 45.1 0.00 0.00 0.00 78 1011.3
20240420005833 13 266 30.6 43.5 0.00 0.00 0.00 78 1011.4
20240420005337 13 273 29.0 40.2 0.00 0.00 0.00 79 1011.4
20240420004839 13 270 29.0 45.1 0.00 0.00 0.00 78 1011.4
20240420004343 13 266 33.8 45.1 0.00 0.00 0.00 76 1011.3
20240420003845 14 271 27.4 45.1 0.00 0.00 0.00 77 1011.2
20240420003348 14 273 30.6 45.1 0.00 0.00 0.00 75 1011.2
20240420002851 14 264 29.0 41.8 0.00 0.00 0.00 75 1011.3
20240420002354 15 278 27.4 41.8 0.00 0.00 0.00 74 1011.2
20240420001858 15 259 29.0 41.8 0.00 0.00 0.00 73 1011.4
20240420001401 15 272 27.4 43.5 0.00 0.00 0.00 72 1011.3
20240420000903 15 278 27.4 45.1 0.00 0.00 0.00 74 1011.2
20240420000407 15 280 25.7 48.3 0.00 0.00 0.00 74 1011.2